Regional Weather Roundup
Issued by NWS Charleston, WV

Home | Current Version | Previous Version | Graphics & Text | Print | Product List | Glossary Off
Versions: 1 2 3 4 5 6 7 8 9 10 11 12 13 14 15 16 17 18 19 20 21 22 23 24 25 26 27 28 29 30 31 32 33 34 35 36 37 38 39 40 41 42 43 44 45 46 47 48 49 50

000
ASUS41 KRLX 010110
RWRRLX
West Virginia Regional Weather Roundup
National Weather Service Charleston WV
900 PM EDT FRI JUL 31 2015

Note: "fair" indicates few or no clouds below 12,000 feet with no
significant weather and/or obstructions to visibility.

WVZ003-010200-
Northern Panhandle of West Virginia

CITY           SKY/WX    TMP DP  RH WIND       PRES   REMARKS
WHEELING         N/A     77  57  50 W6        29.92R
$$

WVZ009-010200-
Northwest West Virginia

CITY           SKY/WX    TMP DP  RH WIND       PRES   REMARKS
PARKERSBURG      N/A     76  62  62 W5        29.96R
$$

WVZ006-010200-
Western West Virginia

CITY           SKY/WX    TMP DP  RH WIND       PRES   REMARKS
HUNTINGTON       N/A     76  64  66 SW5       29.97R
$$

WVZ015-010200-
West Central West Virginia

CITY           SKY/WX    TMP DP  RH WIND       PRES   REMARKS
CHARLESTON       N/A     77  62  59 SW3       29.97R
$$

WVZ022-031-010200-
North Central West Virginia

CITY           SKY/WX    TMP DP  RH WIND       PRES   REMARKS
CLARKSBURG     MOCLDY    75  59  57 SW7       29.95R
MORGANTOWN     MOCLDY    79  57  46 S5        29.95R
$$

WVZ025-035-042-045-010200-
Southern West Virginia

CITY           SKY/WX    TMP DP  RH WIND       PRES   REMARKS
BECKLEY          N/A     70  56  61 CALM      30.07R
LOGAN            N/A     75  61  60 CALM      29.99R
BLUEFIELD        N/A     72  56  57 W3        30.10R
LEWISBURG        N/A     74  56  54 CALM      30.05S
$$

WVZ047-010200-
Northern Mountains of West Virginia

CITY           SKY/WX    TMP DP  RH WIND       PRES   REMARKS
ELKINS           N/A     67  60  78 SE3       30.01R
$$

WVZ052-010200-
Eastern Panhandle of West Virginia

CITY           SKY/WX    TMP DP  RH WIND       PRES   REMARKS
MARTINSBURG      N/A     78  57  48 W5        29.89R
PETERSBURG       N/A    N/A N/A N/A CALM      29.95R
$$


USA.gov is the U.S. government's official web portal to all federal, state and local government web resources and services.